This is the latest recevied weather packets stored in our database for station/object KI4BIY. If no packets are shown the sender has not sent any weather packets the latest 10 day(s).
| Time | Temp. | Humidity | Pressure | Rain* | Wind** | Luminosity | Snow |
|---|---|---|---|---|---|---|---|
| 1777784383 | 10.56° C | 78% | 1019.5 hPa | 0 mm | - | 0 W/m² | - |
| 1777784080 | 10.56° C | 78% | 1019.7 hPa | 0 mm | - | 0 W/m² | - |
| 1777783777 | 11.11° C | 80% | 1019.4 hPa | 0 mm | - | 0 W/m² | - |
| 1777783473 | 10.56° C | 79% | 1019.4 hPa | 0 mm | - | 0 W/m² | - |
| 1777783171 | 11.11° C | 78% | 1019.6 hPa | 0 mm | - | 0 W/m² | - |
| 1777782867 | 11.11° C | 79% | 1019.5 hPa | 0 mm | - | 0 W/m² | - |
| 1777782564 | 11.11° C | 78% | 1019.4 hPa | 0 mm | - | 0 W/m² | - |
| 1777782261 | 11.11° C | 78% | 1019.6 hPa | 0 mm | - | 0 W/m² | - |
| 1777781957 | 11.67° C | 75% | 1019.2 hPa | 0 mm | - | 0 W/m² | - |
| 1777781654 | 11.67° C | 75% | 1019.4 hPa | 0 mm | - | 0 W/m² | - |
| 1777781351 | 11.67° C | 75% | 1019.4 hPa | 0 mm | - | 0 W/m² | - |
| 1777781049 | 11.11° C | 76% | 1019.4 hPa | 0 mm | - | 0 W/m² | - |
| 1777780746 | 11.11° C | 77% | 1019.3 hPa | 0 mm | - | 0 W/m² | - |
| 1777780443 | 11.11° C | 78% | 1019.4 hPa | 0 mm | - | 0 W/m² | - |
| 1777780140 | 11.11° C | 77% | 1019.3 hPa | 0 mm | - | 0 W/m² | - |
| 1777779838 | 11.11° C | 78% | 1019.4 hPa | 0 mm | - | 0 W/m² | - |
| 1777779534 | 11.67° C | 76% | 1019.4 hPa | 0 mm | - | 0 W/m² | - |
| 1777779232 | 11.67° C | 75% | 1019.3 hPa | 0 mm | - | 0 W/m² | - |
| 1777778930 | 11.67° C | 74% | 1019.4 hPa | 0 mm | - | 0 W/m² | - |
| 1777778629 | 11.67° C | 73% | 1019.3 hPa | 0 mm | - | 0 W/m² | - |
| 1777778326 | 12.22° C | 73% | 1019 hPa | 0 mm | - | 0 W/m² | - |
| 1777778023 | 12.22° C | 72% | 1019.1 hPa | 0 mm | - | 0 W/m² | - |
| 1777777719 | 12.22° C | 71% | 1019.1 hPa | 0 mm | - | 0 W/m² | - |
| 1777777416 | 12.78° C | 71% | 1018.9 hPa | 0 mm | - | 0 W/m² | - |
| 1777777113 | 12.78° C | 69% | 1019 hPa | 0 mm | - | 0 W/m² | - |
* Rain latest hour (hover to see other rain measurements)
** Current wind speed in m/s (hover to see current wind gust speed)